[[{"header":{"parameterUnit":"m.s-1","parameterCategory":1,"la1":30.2991,"la2":30.254,"lo1":-89.0895,"lo2":-89.0444,"dy":0.0017,"dx":0.0017,"nx":28,"ny":28,"refTime":"2023-10-16T21:00:00:Z","depth":0,"parameterNumber":2,"parameterNumberName":"U-component_of_WINDS"},"data":[0,0,0,0,0,0,0,0,0,0,0,0,0,0,0,0,0,0,0,0,0,0,0,0,0,0,0,0,0,0,0,0,0,0,0,0,0,0,0,0,0,0,0,0,0,0,0,0,0,0,0,0,0,0,0,0,0,0,0.736,0.736,0,0.7342,0.7342,0.7342,0.7282,0.728,0.7279,0.7278,0.7261,0.7261,0.7262,0,0,0,0,0,0,0,0,0,0,0,0,0,0.7344,0.7345,0.736,0.736,0.736,0.7342,0.7342,0.7342,0.7282,0.728,0.7279,0.7277,0.726,0.7261,0.7262,0,0,0,0,0,0,0,0,0,0,0,0,0,0.7341,0.7345,0.736,0.7328,0.7325,0.7342,0.7342,0.7342,0.7282,0.728,0.7278,0.7276,0.726,0.7261,0.7262,0.731,0,0,0.7266,0.7267,0,0,0,0,0,0,0,0,0.7341,0.7342,0.7333,0.733,0.7327,0.7312,0.733,0.7331,0.7283,0.7299,0.7278,0.7275,0.7279,0.7279,0.728,0.7309,0.7309,0.7266,0.7267,0.7267,0.7268,0,0,0,0,0,0,0,0.7342,0.7342,0.7353,0.7333,0.7329,0.7314,0.7312,0.733,0.7301,0.7297,0.7293,0.7291,0.7277,0.7279,0.7279,0.7308,0.7266,0.7267,0.7268,0.7268,0.7374,0.7376,0,0,0,0,0,0,0.7346,0.7343,0.7354,0.7352,0.7329,0.7316,0.7313,0.7319,0.73,0.7295,0.7293,0.7288,0.7278,0.7278,0.7278,0.7331,0.7267,0.7268,0.7269,0.7372,0.7374,0.7377,0,0,0,0,0,0,0.7346,0.7348,0.7354,0.7346,0.7346,0.7319,0.7325,0.732,0.7321,0.7297,0.7292,0.73,0.7276,0.7277,0.7302,0.733,0.7269,0.727,0.7369,0.7373,0.7376,0.7439,0,0,0,0,0,0,0.7346,0.7348,0.7366,0.7347,0.7347,0.7378,0.7327,0.7321,0.7323,0.7317,0.7302,0.7298,0.7275,0.7301,0.7303,0.733,0.7271,0.7367,0.7371,0.7375,0.7434,0.7444,0.7452,0,0,0,0,0,0.7346,0.7385,0.7367,0.7369,0.7368,0.738,0.738,0.7352,0.7326,0.7343,0.7327,0.7298,0.7327,0.7304,0.7306,0.7334,0.7365,0.737,0.7374,0.743,0.7442,0.7452,0,0,0,0,0,0,0.7408,0.7382,0.7362,0.7396,0.7391,0.737,0.7391,0.7366,0.7368,0.7363,0.7329,0.7326,0.7356,0.7348,0.7323,0.7379,0.7341,0.7346,0.7383,0.7394,0.7402,0.7403,0.7272,0,0,0,0,0,0.7426,0.7438,0.7414,0.7447,0.7445,0.7419,0.7423,0.7402,0.7395,0.7393,0.7379,0.7374,0.7381,0.7387,0.7393,0.7433,0.7428,0.7454,0.7463,0.747,0.7475,0.7494,0.7504,0.7392,0.7392,0.7392,0,0,0.7463,0.745,0.746,0.746,0.7453,0.7465,0.7417,0.7433,0.7442,0.7395,0.7418,0.7408,0.74,0.7432,0.7446,0.7427,0.7505,0.7476,0.7482,0.7483,0.75,0.751,0.752,0.7395,0.7395,0.7394,0,0,0.7537,0.7529,0.7554,0.7548,0.7538,0.752,0.7527,0.751,0.7501,0.7523,0.7488,0.7498,0.7512,0.7507,0.7507,0.7578,0.755,0.7581,0.7627,0.7646,0.7655,0.7662,0.7686,0.7696,0.7586,0.7586,0.7586,0,0.7584,0.7601,0.7571,0.7588,0.7589,0.7547,0.7572,0.7568,0.7561,0.7562,0.754,0.7556,0.7548,0.7578,0.7595,0.7597,0.7602,0.7582,0.7656,0.7663,0.767,0.7692,0.7702,0.759,0.7589,0.7589,0.7589,0,0.7659,0.7672,0.7694,0.7687,0.769,0.7711,0.7684,0.7691,0.767,0.7654,0.7677,0.7665,0.7667,0.7673,0.7653,0.77,0.7688,0.7662,0.7623,0.7685,0.7705,0.7714,0.7595,0.7594,0.7593,0.7592,0,0,0.7772,0.7747,0.7755,0.7751,0.7736,0.7746,0.7765,0.7766,0.7772,0.7769,0.7784,0.7796,0.7771,0.7771,0.775,0.7767,0.7822,0.7738,0.7737,0.7753,0.7871,0.789,0.7901,0.7804,0.7806,0.7807,0.7871,0,0.784,0.7871,0.7844,0.788,0.789,0.785,0.7867,0.786,0.7846,0.7853,0.7838,0.7846,0.7814,0.7813,0.7828,0.7812,0.7845,0.7807,0.7817,0.7818,0.7819,0.7911,0.7932,0.7993,0.7879,0.7881,0.7882,0,0.7924,0.7923,0.796,0.7941,0.7945,0.796,0.7958,0.7966,0.7957,0.7946,0.7945,0.7919,0.7937,0.79,0.7923,0.7898,0.79,0.7893,0.7895,0.7894,0.7853,0.7911,0.8012,0.8021,0.7894,0.7893,0.7892,0,0.8,0.8008,0.803,0.8028,0.8008,0.802,0.8012,0.8001,0.8004,0.8002,0.8003,0.8005,0.8005,0.8007,0.7982,0.7958,0.8008,0.7969,0.7998,0.7999,0.801,0.8009,0.8111,0.8014,0.8014,0.8014,0.8014,0,0.8078,0.8102,0.8064,0.8078,0.8103,0.8072,0.8098,0.8086,0.8077,0.8087,0.8054,0.8065,0.8032,0.8039,0.802,0.8042,0.8043,0.8033,0.8028,0.8036,0.8037,0.8036,0.803,0.8016,0.8016,0.8015,0.8015,0,0.8167,0.8143,0.8164,0.8143,0.8139,0.8158,0.814,0.8152,0.8135,0.8149,0.8151,0.8126,0.8132,0.8108,0.8111,0.8098,0.8129,0.8118,0.8132,0.8128,0.8158,0.8155,0.8261,0.8273,0.8171,0.8172,0.8172,0,0.8217,0.8234,0.8215,0.8219,0.8213,0.8221,0.8222,0.8193,0.8196,0.8186,0.8199,0.8203,0.8204,0.8218,0.8199,0.8201,0.8188,0.8226,0.8189,0.8195,0.8187,0.8186,0.8187,0.8233,0.8234,0.8235,0.8236,0,0.8309,0.8296,0.83,0.8299,0.8301,0.8299,0.8295,0.8301,0.8268,0.8274,0.828,0.8281,0.8283,0.8288,0.8286,0.8278,0.8252,0.8248,0.8255,0.8262,0.8269,0.8264,0.8151,0.8245,0.8245,0.8244,0.8243,0.8243,0.8379,0.8392,0.838,0.8384,0.8378,0.8374,0.8384,0.8368,0.8373,0.8372,0.8355,0.8364,0.8354,0.8348,0.8343,0.835,0.8333,0.8343,0.8345,0.8348,0.8352,0.8269,0.835,0.835,0.8349,0.8349,0.8349,0,0.8468,0.8458,0.8463,0.8457,0.8461,0.8435,0.8429,0.8434,0.8442,0.8435,0.8437,0.8443,0.8447,0.8429,0.843,0.8439,0.8427,0.844,0.8438,0.8437,0.8368,0.8362,0.845,0.845,0.845,0.845,0.845,0.845,0.8515,0.8534,0.852,0.8536,0.8526,0.8534,0.8532,0.8529,0.8523,0.8531,0.8534,0.8522,0.851,0.851,0.8512,0.8507,0.8508,0.8525,0.8516,0.8452,0.8442,0.8432,0.8426,0.8526,0.8526,0.8583,0.8584,0.8584]},{"header":{"parameterUnit":"m.s-1","parameterCategory":1,"la1":30.2991,"la2":30.254,"lo1":-89.0895,"lo2":-89.0444,"dy":0.0017,"dx":0.0017,"nx":28,"ny":28,"refTime":"2023-10-16T21:00:00:Z","depth":0,"parameterNumber":3,"parameterNumberName":"V-component_of_WINDS"},"data":[0,0,0,0,0,0,0,0,0,0,0,0,0,0,0,0,0,0,0,0,0,0,0,0,0,0,0,0,0,0,0,0,0,0,0,0,0,0,0,0,0,0,0,0,0,0,0,0,0,0,0,0,0,0,0,0,0,0,1.6588,1.6588,0,1.6569,1.6569,1.6569,1.6534,1.6533,1.6533,1.6532,1.6511,1.6511,1.6511,0,0,0,0,0,0,0,0,0,0,0,0,0,1.6591,1.6592,1.6588,1.6588,1.6588,1.6569,1.6569,1.6569,1.6534,1.6533,1.6533,1.6532,1.6511,1.6511,1.6511,0,0,0,0,0,0,0,0,0,0,0,0,0,1.6583,1.6592,1.6588,1.6568,1.6566,1.657,1.6569,1.6569,1.6534,1.6533,1.6532,1.6531,1.6511,1.6511,1.6511,1.6532,0,0,1.6511,1.6511,0,0,0,0,0,0,0,0,1.6584,1.6583,1.6572,1.657,1.6568,1.6553,1.6562,1.6556,1.6535,1.6546,1.6532,1.6531,1.6526,1.6524,1.6523,1.6531,1.653,1.6511,1.6511,1.6511,1.6512,0,0,0,0,0,0,0,1.6584,1.6584,1.6581,1.6571,1.6569,1.6559,1.6557,1.6561,1.6542,1.6545,1.6543,1.6541,1.6524,1.6523,1.6522,1.653,1.6511,1.6511,1.6512,1.6512,1.655,1.6551,0,0,0,0,0,0,1.6588,1.6584,1.6581,1.658,1.6573,1.656,1.6558,1.6559,1.6542,1.6538,1.6542,1.654,1.6523,1.6522,1.6521,1.6543,1.6511,1.6512,1.6512,1.6549,1.655,1.6551,0,0,0,0,0,0,1.6588,1.6588,1.6582,1.6582,1.658,1.6561,1.6563,1.6559,1.6558,1.6539,1.6535,1.6544,1.6523,1.6521,1.6529,1.6541,1.6512,1.6512,1.6548,1.6549,1.6551,1.6586,0,0,0,0,0,0,1.6589,1.6588,1.6597,1.6582,1.658,1.6591,1.6564,1.6559,1.6558,1.6555,1.654,1.6537,1.6522,1.6529,1.6529,1.6541,1.6512,1.6547,1.6549,1.655,1.6584,1.6589,1.6593,0,0,0,0,0,1.6589,1.6608,1.6598,1.6598,1.6591,1.6592,1.6591,1.6573,1.6559,1.6567,1.6555,1.6538,1.654,1.653,1.653,1.6542,1.6546,1.6548,1.655,1.6582,1.6588,1.6593,0,0,0,0,0,0,1.6625,1.6606,1.6594,1.6609,1.6603,1.6586,1.6596,1.6581,1.6577,1.6574,1.6552,1.6549,1.6559,1.6551,1.654,1.656,1.654,1.6542,1.6564,1.657,1.6574,1.6576,1.6512,0,0,0,0,0,1.6635,1.6638,1.6621,1.6636,1.6633,1.6615,1.6615,1.6602,1.6594,1.659,1.6579,1.6571,1.657,1.6569,1.6567,1.6583,1.6578,1.6591,1.6595,1.6599,1.6601,1.6606,1.6611,1.6558,1.6558,1.6558,0,0,1.6655,1.6645,1.6649,1.6643,1.6636,1.6639,1.6613,1.6618,1.6619,1.6591,1.6597,1.6588,1.6578,1.6589,1.6593,1.6583,1.6614,1.6602,1.6605,1.6605,1.6609,1.6614,1.6618,1.656,1.656,1.6559,0,0,1.6693,1.6687,1.6697,1.6691,1.6681,1.6668,1.6671,1.6656,1.6649,1.6655,1.6633,1.6634,1.6633,1.6626,1.6622,1.6655,1.6638,1.6655,1.6678,1.6683,1.6687,1.6691,1.6701,1.6705,1.6657,1.6657,1.6657,0,1.6719,1.6724,1.6705,1.671,1.6707,1.6682,1.6692,1.6686,1.6676,1.6674,1.6663,1.6659,1.665,1.6658,1.6666,1.6664,1.6665,1.6656,1.6688,1.6692,1.6695,1.6704,1.6708,1.6659,1.6659,1.6658,1.6658,0,1.6755,1.6758,1.6768,1.6758,1.6757,1.6765,1.6745,1.6746,1.6732,1.672,1.6725,1.6714,1.6708,1.6709,1.6696,1.6714,1.6707,1.6693,1.6672,1.6702,1.671,1.6714,1.6662,1.6661,1.666,1.666,0,0,1.6817,1.6795,1.6799,1.6793,1.6779,1.6781,1.6786,1.6781,1.678,1.6774,1.6776,1.6775,1.6761,1.6756,1.6742,1.6747,1.6771,1.6731,1.673,1.6737,1.6787,1.6798,1.6802,1.676,1.676,1.6761,1.6788,0,1.6851,1.686,1.6842,1.6854,1.6855,1.6831,1.6835,1.6826,1.6815,1.6813,1.68,1.6799,1.6781,1.6778,1.6781,1.6767,1.678,1.6765,1.676,1.6761,1.6763,1.6807,1.6818,1.6844,1.6791,1.6791,1.6792,0,1.6892,1.6887,1.69,1.6883,1.6883,1.6887,1.6879,1.6879,1.6867,1.6858,1.6852,1.6835,1.6838,1.6819,1.682,1.681,1.6807,1.68,1.68,1.6798,1.6778,1.6805,1.6853,1.6856,1.6797,1.6797,1.6796,0,1.6933,1.6929,1.6936,1.6932,1.6913,1.6917,1.6909,1.6896,1.6893,1.6886,1.6883,1.6877,1.6873,1.6867,1.6848,1.6836,1.6851,1.6831,1.6842,1.6842,1.6846,1.6846,1.6892,1.6846,1.6846,1.6846,1.6846,0,1.6973,1.6981,1.6954,1.6958,1.6966,1.6944,1.6952,1.6942,1.6931,1.6931,1.6909,1.6909,1.6884,1.6881,1.6866,1.6869,1.6867,1.6859,1.6855,1.686,1.6861,1.6857,1.6855,1.6847,1.6847,1.6846,1.6846,0,1.702,1.7003,1.7008,1.6989,1.6984,1.6991,1.6974,1.6976,1.6963,1.6963,1.6962,1.694,1.6936,1.6916,1.6907,1.6896,1.6903,1.6895,1.6907,1.6904,1.6916,1.6915,1.6961,1.6965,1.6917,1.6918,1.6918,0,1.7046,1.7052,1.7033,1.7032,1.7025,1.7024,1.702,1.6998,1.6996,1.6982,1.6985,1.6978,1.6972,1.6965,1.6948,1.694,1.6931,1.6947,1.6929,1.6934,1.6929,1.6929,1.6928,1.6951,1.6952,1.6952,1.6953,0,1.7093,1.7084,1.708,1.7073,1.7069,1.7063,1.7054,1.7054,1.703,1.7027,1.7022,1.7017,1.7007,1.7,1.6989,1.6979,1.6961,1.6959,1.696,1.6966,1.6972,1.6967,1.6916,1.6958,1.6957,1.6957,1.6957,1.6956,1.713,1.7133,1.712,1.7116,1.7107,1.7099,1.71,1.7086,1.7082,1.7072,1.7059,1.7055,1.704,1.7024,1.7015,1.701,1.7001,1.7004,1.7005,1.7005,1.7007,1.6973,1.7008,1.7008,1.7008,1.7008,1.7008,0,1.7175,1.7165,1.7161,1.715,1.7146,1.713,1.712,1.7117,1.7114,1.7103,1.7096,1.7089,1.7082,1.7063,1.7054,1.7053,1.7045,1.7051,1.7051,1.7048,1.7017,1.7016,1.7058,1.7058,1.7058,1.7058,1.7058,1.7058,1.7197,1.7201,1.719,1.7188,1.7178,1.7174,1.7169,1.7161,1.7151,1.7145,1.7138,1.7127,1.7111,1.71,1.7092,1.7086,1.7083,1.7092,1.7084,1.7055,1.7051,1.7046,1.7045,1.7092,1.7092,1.7115,1.7115,1.7115]}]]